N8IR-11 Weather Reports


Display with metric or nautical units.
time (UTC)temp
F
wind
direction
speed
MPH
gust
MPH
rain 1hr
in
rain 24hr
in
rain mn
in
humidity
%
barometer
mb
20260502221712 49 279 1.0 3.0 0.00 0.00 0.00 48 1015.9
20260502221212 49 325 2.0 5.0 0.00 0.00 0.00 50 1015.9
20260502220712 48 0.0 3.0 0.00 0.00 0.00 48 1016.0
20260502220232 49 205 1.0 3.0 0.00 0.00 0.00 49 1016.0
20260502215712 49 302 1.0 2.0 0.00 0.00 0.00 50 1016.0
20260502215212 49 292 2.0 6.0 0.00 0.00 0.00 50 1016.0
20260502214712 49 319 1.0 3.0 0.00 0.00 0.00 50 1016.0
20260502214212 48 253 1.0 6.0 0.00 0.00 0.00 49 1015.9
20260502213732 48 18 1.0 2.0 0.00 0.00 0.00 49 1016.0
20260502213212 48 268 3.0 7.0 0.00 0.00 0.00 48 1016.0
20260502212732 49 239 2.0 9.0 0.00 0.00 0.00 46 1015.9
20260502212212 49 319 2.0 7.0 0.00 0.00 0.00 49 1015.9
20260502211712 49 321 3.0 8.0 0.00 0.00 0.00 47 1016.0
20260502211232 49 270 2.0 6.0 0.00 0.00 0.00 48 1015.9
20260502210712 49 328 3.0 6.0 0.00 0.00 0.00 48 1016.0
20260502210212 49 227 7.0 9.0 0.00 0.00 0.00 48 1016.0
20260502205712 49 289 2.0 6.0 0.00 0.00 0.00 48 1016.1
20260502205212 49 304 3.0 7.0 0.00 0.00 0.00 46 1016.1
20260502204712 49 234 2.0 4.0 0.00 0.00 0.00 48 1016.0
20260502204212 48 278 2.0 5.0 0.00 0.00 0.00 50 1016.0
20260502203712 48 274 3.0 7.0 0.00 0.00 0.00 48 1016.1
20260502203212 48 315 3.0 8.0 0.00 0.00 0.00 46 1016.1
20260502202712 48 313 3.0 8.0 0.00 0.00 0.00 47 1016.1
20260502202211 48 240 5.0 8.0 0.00 0.00 0.00 49 1016.1
20260502201712 48 280 1.0 3.0 0.00 0.00 0.00 50 1016.2
20260502201212 48 335 1.0 5.0 0.00 0.00 0.00 51 1016.3
20260502200712 48 321 3.0 6.0 0.00 0.00 0.00 48 1016.3
20260502200252 48 265 1.0 3.0 0.00 0.00 0.00 49 1016.3
20260502195712 48 243 3.0 6.0 0.00 0.00 0.00 49 1016.4
20260502195212 48 262 5.0 8.0 0.00 0.00 0.00 49 1016.4
20260502194712 48 321 7.0 12.0 0.00 0.00 0.00 49 1016.4
20260502194211 48 322 3.0 9.0 0.00 0.00 0.00 49 1016.4
20260502193732 48 297 2.0 8.0 0.00 0.00 0.00 46 1016.5
20260502193232 48 343 5.0 10.0 0.00 0.00 0.00 47 1016.5
20260502192712 48 315 4.0 7.0 0.00 0.00 0.00 48 1016.5
20260502192211 47 335 2.0 7.0 0.00 0.00 0.00 48 1016.6
20260502191732 47 327 3.0 8.0 0.00 0.00 0.00 49 1016.6
20260502191211 47 317 1.0 2.0 0.00 0.00 0.00 47 1016.7
20260502190712 47 334 5.0 9.0 0.00 0.00 0.00 46 1016.8
20260502190212 48 328 5.0 8.0 0.00 0.00 0.00 47 1016.9
20260502185712 48 326 3.0 5.0 0.00 0.00 0.00 47 1016.9
20260502185232 49 317 2.0 4.0 0.00 0.00 0.00 50 1016.9
20260502184712 48 257 4.0 6.0 0.00 0.00 0.00 51 1016.9
20260502184232 48 348 2.0 5.0 0.00 0.00 0.00 47 1016.9
20260502183711 48 338 4.0 7.0 0.00 0.00 0.00 48 1017.0
20260502183232 48 330 2.0 4.0 0.00 0.00 0.00 50 1017.1
20260502182712 48 334 5.0 9.0 0.00 0.00 0.00 48 1017.1
20260502182211 48 331 4.0 10.0 0.00 0.00 0.00 50 1017.1
20260502181712 48 296 2.0 6.0 0.00 0.00 0.00 55 1017.2
20260502181211 48 332 3.0 6.0 0.00 0.00 0.00 52 1017.2
20260502180711 48 66 3.0 4.0 0.00 0.00 0.00 51 1017.2
20260502180211 48 303 2.0 4.0 0.00 0.00 0.00 54 1017.2
20260502170211 46 343 2.0 6.0 0.00 0.00 0.00 54 1017.5
20260502164231 46 340 0.0 2.0 0.00 0.00 0.00 55 1017.6
20260502163732 46 266 1.0 4.0 0.00 0.00 0.00 54 1017.6
20260502163231 46 345 2.0 10.0 0.00 0.00 0.00 53 1017.6
20260502162731 47 333 2.0 7.0 0.00 0.00 0.00 57 1017.7
20260502162211 47 39 2.0 5.0 0.00 0.00 0.00 55 1017.7
20260502161711 46 5 3.0 5.0 0.00 0.00 0.00 58 1017.7
20260502161311 45 352 1.0 3.0 0.00 0.00 0.00 58 1017.7
20260502160712 45 34 1.0 4.0 0.00 0.00 0.00 57 1017.8
20260502160211 45 316 2.0 8.0 0.00 0.00 0.00 59 1017.8
20260502152211 45 341 3.0 8.0 0.00 0.00 0.00 56 1017.7
20260502151711 45 324 4.0 10.0 0.00 0.00 0.00 57 1017.7
20260502151211 45 269 3.0 8.0 0.00 0.00 0.00 59 1017.7
20260502150711 45 316 1.0 4.0 0.00 0.00 0.00 60 1017.7
20260502150211 45 45 1.0 8.0 0.00 0.00 0.00 61 1017.7
20260502130211 42 319 4.0 9.0 0.00 0.00 0.00 70 1017.4
20260502123711 40 2 4.0 7.0 0.00 0.01 0.00 76 1017.5
20260502123211 40 343 3.0 5.0 0.00 0.01 0.00 77 1017.4
20260502122711 39 16 2.0 5.0 0.00 0.01 0.00 80 1017.4
20260502122231 39 334 4.0 6.0 0.00 0.01 0.00 81 1017.4
20260502121711 38 317 4.0 8.0 0.00 0.01 0.00 84 1017.4
20260502121211 38 332 1.0 4.0 0.00 0.01 0.00 86 1017.3
20260502120711 37 330 2.0 4.0 0.00 0.01 0.00 89 1017.4
20260502120211 37 343 3.0 5.0 0.00 0.01 0.00 90 1017.3
20260502115731 36 337 0.0 4.0 0.00 0.01 0.00 91 1017.2
20260502115211 36 0.0 2.0 0.00 0.01 0.00 90 1017.3
20260502114711 36 267 0.0 2.0 0.00 0.01 0.00 90 1017.2
20260502114231 36 307 0.0 1.0 0.00 0.01 0.00 90 1017.2
20260502113711 36 0.0 0.0 0.00 0.01 0.00 90 1017.2
20260502113211 36 0.0 0.0 0.00 0.01 0.00 90 1017.1
20260502112711 35 302 0.0 1.0 0.00 0.01 0.00 90 1017.1
20260502112211 35 0.0 1.0 0.00 0.01 0.00 89 1017.1
20260502111711 35 0.0 0.0 0.00 0.01 0.00 89 1017.0
20260502111231 35 322 0.0 2.0 0.00 0.01 0.00 88 1017.0
20260502110711 35 0.0 0.0 0.00 0.01 0.00 88 1016.9
20260502110211 36 0.0 0.0 0.00 0.02 0.00 87 1016.9
20260502105711 36 0.0 0.0 0.00 0.02 0.00 87 1016.8
20260502105211 36 0.0 0.0 0.00 0.02 0.00 87 1016.8
20260502104711 36 0.0 0.0 0.00 0.02 0.00 87 1016.8
20260502104211 37 0.0 0.0 0.00 0.02 0.00 86 1016.8
20260502103711 37 0.0 0.0 0.00 0.03 0.00 86 1016.8
20260502103251 37 0.0 0.0 0.00 0.04 0.00 86 1016.7
20260502102711 37 334 0.0 1.0 0.00 0.04 0.00 86 1016.6
20260502102211 38 0.0 0.0 0.00 0.05 0.00 86 1016.6
20260502101710 38 0.0 0.0 0.00 0.05 0.00 85 1016.7
20260502101211 38 0.0 0.0 0.00 0.06 0.00 85 1016.7
20260502100711 38 0.0 0.0 0.00 0.07 0.00 86 1016.7
20260502100211 38 0.0 0.0 0.00 0.08 0.00 86 1016.7
20260502090711 39 0.0 0.0 0.00 0.14 0.00 83 1016.4
20260502090210 39 0.0 1.0 0.00 0.15 0.00 83 1016.4
20260502071210 39 300 1.0 2.0 0.00 0.16 0.00 78 1015.9
20260502070710 40 315 1.0 4.0 0.00 0.17 0.00 78 1015.9
20260502070210 40 223 1.0 2.0 0.00 0.17 0.00 78 1016.0
20260502065710 40 292 1.0 3.0 0.00 0.17 0.00 78 1016.0
20260502065210 40 292 1.0 2.0 0.00 0.17 0.00 78 1016.1
20260502064710 40 244 1.0 2.0 0.00 0.17 0.00 77 1016.1
20260502064210 40 301 0.0 7.0 0.00 0.18 0.00 77 1016.1
20260502063712 40 351 1.0 1.0 0.00 0.18 0.00 77 1016.1
20260502063232 40 276 1.0 3.0 0.00 0.18 0.00 77 1016.1
20260502062712 40 278 2.0 8.0 0.00 0.19 0.00 77 1016.1
20260502062212 40 279 3.0 6.0 0.00 0.19 0.00 77 1016.1
20260502061712 40 0.0 3.0 0.00 0.19 0.00 78 1016.1
20260502061212 40 274 1.0 4.0 0.00 0.19 0.00 79 1016.1
20260502060712 40 332 0.0 1.0 0.00 0.19 0.00 80 1016.2
20260502060212 40 257 2.0 7.0 0.00 0.19 0.00 80 1016.3
20260502055712 40 245 1.0 3.0 0.00 0.19 0.00 81 1016.3
20260502055212 40 346 0.0 2.0 0.00 0.19 0.00 82 1016.2
20260502054712 40 264 0.0 2.0 0.00 0.19 0.00 82 1016.3
20260502054212 40 273 1.0 4.0 0.00 0.19 0.00 83 1016.3
20260502053712 40 226 1.0 3.0 0.00 0.19 0.00 84 1016.3
20260502053212 40 33 0.0 2.0 0.00 0.19 0.00 85 1016.2
20260502052712 40 246 1.0 2.0 0.00 0.19 0.00 86 1016.2
20260502052212 40 0.0 1.0 0.00 0.19 0.00 86 1016.2
20260502051712 40 314 1.0 3.0 0.00 0.19 0.00 87 1016.3
20260502051212 40 282 0.0 1.0 0.00 0.19 0.00 88 1016.3
20260502050712 39 287 0.0 1.0 0.00 0.19 0.00 88 1016.4
20260502050212 39 0.0 0.0 0.00 0.19 0.00 89 1016.4
20260502045732 39 0.0 0.0 0.00 0.19 0.00 89 1016.3
20260502045212 39 0.0 0.0 0.00 0.19 0.00 89 1016.3
20260502044712 39 248 0.0 1.0 0.00 0.19 0.00 89 1016.3
20260502044212 39 245 0.0 2.0 0.00 0.19 0.00 89 1016.3
20260502043712 39 0.0 0.0 0.00 0.19 0.00 89 1016.3
20260502043212 39 234 0.0 1.0 0.00 0.19 0.00 89 1016.3
20260502042712 39 234 0.0 1.0 0.00 0.19 0.00 88 1016.3
20260502042212 39 231 0.0 1.0 0.00 0.19 0.00 88 1016.3
20260502041712 39 233 1.0 2.0 0.00 0.19 0.00 88 1016.3
20260502041212 40 232 1.0 2.0 0.00 0.19 0.00 87 1016.3
20260502040712 40 239 1.0 2.0 0.00 0.19 0.00 87 1016.2
20260502040212 40 0.0 0.0 0.00 0.19 0.00 87 1016.1
20260502035712 40 0.0 0.0 0.00 0.19 0.19 87 1016.0
20260502035212 41 0.0 0.0 0.00 0.19 0.19 87 1016.0
20260502034712 41 0.0 0.0 0.00 0.19 0.19 87 1015.9
20260502034212 41 0.0 0.0 0.00 0.19 0.19 87 1015.9
20260502033712 41 0.0 0.0 0.00 0.19 0.19 87 1015.9
20260502033212 41 0.0 0.0 0.00 0.19 0.19 88 1015.9
20260502032712 42 321 0.0 1.0 0.00 0.19 0.19 88 1015.9
20260502032212 42 336 0.0 2.0 0.00 0.19 0.19 88 1015.8
20260502031712 42 0.0 0.0 0.00 0.19 0.19 88 1015.9
20260502031212 42 0.0 0.0 0.00 0.19 0.19 88 1015.8
20260502030732 42 0.0 0.0 0.00 0.19 0.19 88 1015.8
20260502030212 42 0.0 0.0 0.00 0.19 0.19 88 1015.8
20260502025712 42 0.0 0.0 0.00 0.19 0.19 88 1015.8
20260502025212 42 0.0 0.0 0.00 0.19 0.19 88 1015.8
20260502024712 42 0.0 0.0 0.00 0.19 0.19 87 1015.8
20260502024212 42 0.0 0.0 0.00 0.19 0.19 87 1015.9
20260502023712 42 0.0 0.0 0.00 0.19 0.19 87 1015.9
20260502023212 42 0.0 0.0 0.00 0.19 0.19 87 1015.9
20260502022732 42 0.0 0.0 0.00 0.19 0.19 86 1015.8
20260502022212 42 0.0 0.0 0.00 0.19 0.19 86 1015.8
20260502021712 42 0.0 0.0 0.00 0.19 0.19 86 1015.7
20260502021212 42 0.0 0.0 0.00 0.19 0.19 85 1015.7
20260502020712 42 0.0 0.0 0.00 0.19 0.19 85 1015.6
20260502020212 42 0.0 0.0 0.00 0.19 0.19 84 1015.5
20260502015712 42 0.0 0.0 0.00 0.19 0.19 84 1015.5
20260502015212 42 0.0 0.0 0.00 0.19 0.19 84 1015.4
20260502014732 43 0.0 2.0 0.00 0.19 0.19 83 1015.3
20260502014212 43 0 1.0 3.0 0.00 0.19 0.19 84 1015.2
20260502013732 43 9 1.0 3.0 0.00 0.19 0.19 84 1015.1
20260502013212 43 0.0 0.0 0.00 0.19 0.19 84 1015.1
20260502012712 43 0.0 0.0 0.00 0.19 0.19 84 1015.1
20260502012212 43 309 0.0 2.0 0.00 0.19 0.19 84 1015.0
20260502011712 43 319 1.0 3.0 0.00 0.19 0.19 83 1014.9
20260502011212 43 321 0.0 1.0 0.00 0.19 0.19 83 1014.9
20260502010712 43 333 0.0 2.0 0.00 0.19 0.19 83 1014.9
20260502010212 43 0.0 0.0 0.00 0.19 0.19 82 1014.9
20260502005712 43 319 0.0 1.0 0.00 0.19 0.19 82 1014.8
20260502005232 43 330 1.0 1.0 0.00 0.19 0.19 81 1014.8
20260502004712 44 328 2.0 3.0 0.00 0.19 0.19 81 1014.7
20260502004212 44 0.0 0.0 0.00 0.19 0.19 81 1014.7
20260502003712 44 0.0 0.0 0.00 0.19 0.19 80 1014.7
20260502003232 44 324 0.0 2.0 0.00 0.19 0.19 80 1014.6
20260502002712 44 329 0.0 3.0 0.00 0.19 0.19 79 1014.6
20260502002212 45 347 1.0 2.0 0.00 0.19 0.19 79 1014.6
20260502001712 45 2 2.0 4.0 0.00 0.19 0.19 78 1014.6
20260502001212 45 330 1.0 4.0 0.00 0.19 0.19 78 1014.6
20260502000712 45 336 0.0 2.0 0.00 0.19 0.19 77 1014.5
20260502000212 45 329 1.0 2.0 0.00 0.19 0.19 76 1014.5
20260501235732 45 328 0.0 1.0 0.00 0.19 0.19 75 1014.5
20260501235212 46 287 1.0 3.0 0.00 0.19 0.19 74 1014.5
20260501234712 46 310 3.0 5.0 0.00 0.19 0.19 72 1014.4
20260501234212 46 342 2.0 5.0 0.00 0.19 0.19 71 1014.4
20260501233712 47 302 2.0 8.0 0.00 0.19 0.19 69 1014.4
20260501233212 47 310 3.0 12.0 0.00 0.19 0.19 68 1014.3
20260501232712 48 296 5.0 11.0 0.00 0.19 0.19 67 1014.1
20260501232232 48 326 2.0 3.0 0.00 0.19 0.19 67 1013.9
20260501231712 48 292 1.0 4.0 0.00 0.19 0.19 68 1013.9
20260501231212 48 0.0 1.0 0.00 0.19 0.19 68 1013.9
20260501230712 48 316 3.0 7.0 0.00 0.19 0.19 69 1014.0
20260501230211 48 260 0.0 1.0 0.00 0.19 0.19 70 1013.9
20260501225712 48 271 2.0 9.0 0.00 0.19 0.19 71 1013.9
20260501225212 48 269 0.0 2.0 0.00 0.19 0.19 72 1013.9
20260501224732 48 253 2.0 5.0 0.00 0.19 0.19 72 1013.9
20260501224232 48 265 2.0 3.0 0.00 0.19 0.19 74 1013.9
20260501223712 48 245 1.0 3.0 0.00 0.19 0.19 77 1014.0
20260501223212 48 330 0.0 1.0 0.00 0.19 0.19 79 1014.0
20260501222712 48 0.0 2.0 0.00 0.19 0.19 78 1014.0
20260501222212 48 271 0.0 1.0 0.00 0.19 0.19 78 1014.0